Track STARLINK-1867 now! 10-day predictions STARLINK-1867 is classified as:
1 47153U 20088AH 21024.91667824 -.01127629 00000-0 -75462-1 0 9995 2 47153 53.0472 60.3470 0001338 69.7814 229.4747 15.09505518 10200